Tracking 28790 objects as of 19-Apr-2024
HD Live streaming from Space Station
objects crossing your sky now

BREEZE-KM DEB

Track BREEZE-KM DEB now!
10-day predictions


NORAD ID: 41718
Int'l Code: 2015-020F
Perigee: 1,128.4 km
Apogee: 1,478.9 km
Inclination: 82.5 °
Period: 111.5 minutes
Semi major axis: 7674 km
RCS: Unknown
Launch date: March 31, 2015
Source: Commonwealth of Independent States (former USSR) (CIS)
Launch site: PLESETSK MISSILE AND SPACE COMPLEX (PKMTR)

Note: This is SATELLITE DEBRIS
Your satellite tracking list
Your tracking list is empty




NASA's NSSDC Master Catalog

Two Line Element Set (TLE):
1 41718U 15020F   24106.91887002 -.00000003  00000-0 -43514-4 0  9993
2 41718  82.4897 332.3665 0228307 325.7189  32.9357 12.91260386417634
Source of the keplerian elements: AFSPC